Voltar ao catálogo

SCOUT A R/B

AtivoPO
NORAD 2413·ROCKET BODY·🇺🇸 United States

Lançado Aug 18, 1966 de Vandenberg Space Force Base

Loading…

Próximas Passagens (próximas 24 horas)

TLE

AtualizadoSource: Space-Track

Época: Sep 14, 2026, 21:08 UTC

1 02413U 66076B   26257.88112967  .00000050  00000-0  57181-4 0  9990
2 02413  88.8432  61.2588 0032761 163.2680 196.9560 13.51881280960772

Acompanhe SCOUT A R/B em tempo real com AllMySat

Download on the App Store